[[{"header":{"parameterUnit":"m.s-1","parameterCategory":1,"la1":30.2991,"la2":30.254,"lo1":-89.0895,"lo2":-89.0444,"dy":0.0017,"dx":0.0017,"nx":28,"ny":28,"refTime":"2024-03-25T21:00:00:Z","depth":0,"parameterNumber":2,"parameterNumberName":"U-component_of_WINDS"},"data":[0,0,0,0,0,0,0,0,0,0,0,0,0,0,0,0,0,0,0,0,0,0,0,0,0,0,0,0,0,0,0,0,0,0,0,0,0,0,0,0,0,0,0,0,0,0,0,0,0,0,0,0,0,0,0,0,0,0,-9.5328,-9.533,0,-9.5459,-9.5461,-9.5462,-9.5452,-9.545,-9.5448,-9.5446,-9.5574,-9.5579,-9.5584,0,0,0,0,0,0,0,0,0,0,0,0,0,-9.5065,-9.507,-9.5328,-9.533,-9.5331,-9.5459,-9.5461,-9.5462,-9.5452,-9.545,-9.5448,-9.5445,-9.5573,-9.5579,-9.5585,0,0,0,0,0,0,0,0,0,0,0,0,0,-9.5185,-9.5071,-9.5328,-9.5342,-9.5344,-9.5459,-9.5461,-9.5463,-9.5453,-9.545,-9.5447,-9.5444,-9.557,-9.5578,-9.5586,-9.5693,0,0,-9.561,-9.5613,0,0,0,0,0,0,0,0,-9.5179,-9.5195,-9.5338,-9.5341,-9.5344,-9.5436,-9.5415,-9.554,-9.5454,-9.5411,-9.5446,-9.5443,-9.553,-9.5541,-9.5572,-9.5699,-9.5704,-9.561,-9.5615,-9.5619,-9.5621,0,0,0,0,0,0,0,-9.517,-9.5189,-9.538,-9.534,-9.5344,-9.534,-9.5354,-9.5438,-9.5485,-9.5415,-9.5415,-9.5431,-9.5531,-9.5565,-9.5575,-9.5706,-9.561,-9.5617,-9.5622,-9.5625,-9.5926,-9.5929,0,0,0,0,0,0,-9.5159,-9.5183,-9.5375,-9.5384,-9.5253,-9.5347,-9.5363,-9.541,-9.5485,-9.5493,-9.5433,-9.543,-9.5553,-9.5566,-9.5579,-9.5708,-9.5618,-9.5626,-9.563,-9.5923,-9.5927,-9.593,0,0,0,0,0,0,-9.5154,-9.5177,-9.537,-9.5283,-9.5308,-9.5355,-9.5407,-9.5414,-9.5447,-9.5498,-9.5506,-9.5458,-9.5551,-9.5568,-9.5665,-9.5712,-9.5629,-9.5636,-9.5919,-9.5924,-9.5929,-9.5966,0,0,0,0,0,0,-9.5146,-9.5175,-9.5217,-9.5284,-9.5312,-9.5455,-9.5411,-9.5418,-9.5461,-9.5458,-9.5524,-9.5532,-9.555,-9.5653,-9.5673,-9.5721,-9.5643,-9.5915,-9.5921,-9.5927,-9.5961,-9.5972,-9.5981,0,0,0,0,0,-9.5137,-9.5221,-9.5219,-9.5242,-9.5366,-9.5457,-9.5473,-9.5493,-9.5465,-9.5506,-9.554,-9.553,-9.5705,-9.5663,-9.5685,-9.5737,-9.5912,-9.5919,-9.5927,-9.5956,-9.597,-9.5981,0,0,0,0,0,0,-9.5154,-9.5229,-9.5228,-9.5337,-9.5391,-9.5456,-9.5508,-9.5507,-9.5569,-9.5563,-9.5584,-9.5599,-9.5696,-9.5727,-9.5679,-9.5844,-9.5804,-9.5817,-9.5819,-9.5833,-9.5843,-9.5831,-9.5649,0,0,0,0,0,-9.5171,-9.5241,-9.5303,-9.5392,-9.542,-9.546,-9.5501,-9.5512,-9.5568,-9.559,-9.5631,-9.5684,-9.5751,-9.5794,-9.5859,-9.5967,-9.598,-9.6014,-9.6024,-9.6032,-9.6041,-9.6099,-9.6114,-9.5955,-9.5955,-9.5955,0,0,-9.5205,-9.5256,-9.5298,-9.5397,-9.544,-9.5511,-9.5479,-9.5554,-9.5606,-9.5601,-9.5694,-9.5727,-9.5788,-9.589,-9.5937,-9.5919,-9.6089,-9.6042,-9.6048,-9.6052,-9.6108,-9.6123,-9.6136,-9.596,-9.5959,-9.5958,0,0,-9.5303,-9.535,-9.5429,-9.5474,-9.5541,-9.5568,-9.5587,-9.5653,-9.5675,-9.577,-9.5768,-9.5829,-9.5945,-9.5988,-9.6025,-9.6144,-9.6136,-9.6165,-9.6215,-9.6272,-9.6285,-9.6296,-9.6335,-9.6349,-9.6174,-9.6174,-9.6174,0,-9.5336,-9.5444,-9.5469,-9.5546,-9.5589,-9.5592,-9.5671,-9.5713,-9.5797,-9.5826,-9.5806,-9.5951,-9.5993,-9.6105,-9.6134,-9.6165,-9.6186,-9.6154,-9.6281,-9.6293,-9.6303,-9.6341,-9.6356,-9.6177,-9.6177,-9.6176,-9.6176,0,-9.548,-9.5555,-9.5611,-9.5694,-9.5744,-9.5822,-9.5857,-9.5905,-9.5914,-9.5942,-9.6039,-9.609,-9.6164,-9.6193,-9.6201,-9.6307,-9.6293,-9.6277,-9.6236,-9.6321,-9.6356,-9.6371,-9.6181,-9.618,-9.6179,-9.6178,0,0,-9.5587,-9.5687,-9.5706,-9.5744,-9.5821,-9.5878,-9.5956,-9.6032,-9.6071,-9.6131,-9.6194,-9.6294,-9.6281,-9.6323,-9.6337,-9.6387,-9.6475,-9.6365,-9.6367,-9.638,-9.6592,-9.66,-9.6617,-9.6473,-9.6476,-9.6478,-9.6586,0,-9.5689,-9.5829,-9.5856,-9.5976,-9.6044,-9.605,-9.6118,-9.6172,-9.6202,-9.6263,-9.6296,-9.6365,-9.6343,-9.6368,-9.6419,-9.6453,-9.6517,-9.6447,-9.653,-9.6532,-9.6509,-9.6636,-9.6645,-9.6743,-9.66,-9.6603,-9.6604,0,-9.5826,-9.5891,-9.6019,-9.6088,-9.6117,-9.6178,-9.6249,-9.631,-9.637,-9.6389,-9.6438,-9.6447,-9.6527,-9.6488,-9.6597,-9.6548,-9.6585,-9.6608,-9.6612,-9.6616,-9.657,-9.664,-9.6775,-9.6788,-9.6627,-9.6625,-9.6624,0,-9.5887,-9.6007,-9.6099,-9.6132,-9.6215,-9.6257,-9.6293,-9.6352,-9.6396,-9.6459,-9.6488,-9.6559,-9.6596,-9.6651,-9.6678,-9.6647,-9.6785,-9.6748,-9.68,-9.6799,-9.6824,-9.6821,-9.6963,-9.6855,-9.6855,-9.6854,-9.6854,0,-9.5996,-9.6073,-9.6128,-9.6183,-9.627,-9.6301,-9.6385,-9.6421,-9.6474,-9.6535,-9.6546,-9.6604,-9.6639,-9.6701,-9.6724,-9.681,-9.6828,-9.6843,-9.6846,-9.6839,-9.6837,-9.6859,-9.6851,-9.6858,-9.6857,-9.6857,-9.6856,0,-9.6076,-9.6116,-9.6216,-9.6288,-9.6308,-9.6369,-9.6429,-9.6483,-9.6515,-9.6593,-9.6614,-9.6663,-9.6737,-9.6772,-9.6863,-9.6878,-9.6975,-9.6976,-9.6954,-9.6955,-9.7003,-9.6997,-9.7161,-9.7183,-9.7064,-9.7065,-9.7066,0,-9.6141,-9.62,-9.628,-9.6323,-9.6361,-9.6431,-9.6477,-9.6511,-9.6558,-9.6634,-9.6678,-9.6754,-9.6815,-9.6933,-9.6976,-9.7046,-9.7047,-9.71,-9.7057,-9.7048,-9.7043,-9.7038,-9.7043,-9.7106,-9.7107,-9.7108,-9.7109,0,-9.625,-9.6268,-9.6334,-9.6409,-9.6464,-9.6524,-9.6582,-9.6617,-9.666,-9.6712,-9.6789,-9.6838,-9.6933,-9.7007,-9.7081,-9.7116,-9.7119,-9.7123,-9.7138,-9.7128,-9.7111,-9.7118,-9.6971,-9.7117,-9.7116,-9.7116,-9.7115,-9.7115,-9.6322,-9.6375,-9.644,-9.6514,-9.6562,-9.6617,-9.6672,-9.6712,-9.6778,-9.6859,-9.6875,-9.6957,-9.7018,-9.7117,-9.7156,-9.722,-9.7207,-9.7229,-9.7234,-9.7238,-9.7239,-9.7106,-9.7234,-9.7233,-9.7233,-9.7233,-9.7233,0,-9.6428,-9.6471,-9.654,-9.6622,-9.6681,-9.6683,-9.6749,-9.6796,-9.6869,-9.6927,-9.6988,-9.7077,-9.715,-9.72,-9.7274,-9.7315,-9.7318,-9.7333,-9.7327,-9.7335,-9.7248,-9.7226,-9.7329,-9.7329,-9.7329,-9.7329,-9.7329,-9.7329,-9.649,-9.658,-9.6606,-9.672,-9.6762,-9.6844,-9.6881,-9.6931,-9.6978,-9.7077,-9.7139,-9.7172,-9.7227,-9.7305,-9.7371,-9.7384,-9.7409,-9.7424,-9.7435,-9.7352,-9.7341,-9.7332,-9.7311,-9.743,-9.743,-9.7517,-9.7518,-9.7518]},{"header":{"parameterUnit":"m.s-1","parameterCategory":1,"la1":30.2991,"la2":30.254,"lo1":-89.0895,"lo2":-89.0444,"dy":0.0017,"dx":0.0017,"nx":28,"ny":28,"refTime":"2024-03-25T21:00:00:Z","depth":0,"parameterNumber":3,"parameterNumberName":"V-component_of_WINDS"},"data":[0,0,0,0,0,0,0,0,0,0,0,0,0,0,0,0,0,0,0,0,0,0,0,0,0,0,0,0,0,0,0,0,0,0,0,0,0,0,0,0,0,0,0,0,0,0,0,0,0,0,0,0,0,0,0,0,0,0,4.6398,4.6398,0,4.6436,4.6436,4.6436,4.6439,4.6438,4.6438,4.6437,4.6473,4.6475,4.6476,0,0,0,0,0,0,0,0,0,0,0,0,0,4.6327,4.6328,4.6398,4.6398,4.6399,4.6435,4.6436,4.6436,4.6439,4.6438,4.6438,4.6437,4.6473,4.6475,4.6476,0,0,0,0,0,0,0,0,0,0,0,0,0,4.636,4.6329,4.6398,4.6404,4.6405,4.6435,4.6436,4.6437,4.6439,4.6438,4.6437,4.6437,4.6472,4.6474,4.6476,4.6502,0,0,4.6483,4.6484,0,0,0,0,0,0,0,0,4.6359,4.6363,4.6403,4.6404,4.6405,4.6432,4.6424,4.6458,4.6439,4.6426,4.6437,4.6437,4.646,4.6463,4.6471,4.6503,4.6505,4.6483,4.6484,4.6485,4.6486,0,0,0,0,0,0,0,4.6356,4.6361,4.6413,4.6403,4.6405,4.6405,4.6409,4.6431,4.6446,4.6427,4.6427,4.6432,4.646,4.6469,4.6472,4.6506,4.6483,4.6485,4.6486,4.6487,4.6563,4.6564,0,0,0,0,0,0,4.6353,4.636,4.6411,4.6414,4.638,4.6407,4.6412,4.6424,4.6446,4.6448,4.6432,4.6432,4.6466,4.647,4.6473,4.6507,4.6485,4.6487,4.6488,4.6563,4.6564,4.6564,0,0,0,0,0,0,4.6351,4.6357,4.641,4.6387,4.6393,4.6409,4.6423,4.6425,4.6434,4.645,4.6452,4.6439,4.6466,4.6471,4.6496,4.6508,4.6488,4.649,4.6562,4.6563,4.6564,4.6572,0,0,0,0,0,0,4.6349,4.6357,4.6367,4.6387,4.6395,4.6431,4.6423,4.6426,4.6438,4.6437,4.6457,4.6459,4.6466,4.6493,4.6498,4.651,4.6491,4.6561,4.6562,4.6564,4.657,4.6573,4.6575,0,0,0,0,0,4.6347,4.6366,4.6367,4.6373,4.6407,4.6432,4.6436,4.6444,4.6439,4.6449,4.6459,4.6458,4.6506,4.6495,4.6501,4.6514,4.656,4.6562,4.6563,4.6569,4.6572,4.6575,0,0,0,0,0,0,4.6345,4.6369,4.637,4.6396,4.6413,4.6432,4.6445,4.6447,4.6464,4.6463,4.6471,4.6476,4.6501,4.651,4.6498,4.6541,4.6532,4.6535,4.6534,4.6538,4.654,4.6537,4.6493,0,0,0,0,0,4.6348,4.6366,4.6386,4.6407,4.6416,4.6429,4.644,4.6445,4.6462,4.6468,4.6481,4.6496,4.6515,4.6527,4.6544,4.6572,4.6577,4.6584,4.6586,4.6588,4.6591,4.6608,4.6612,4.657,4.657,4.657,0,0,4.6353,4.6369,4.6379,4.6408,4.642,4.644,4.6435,4.6454,4.6469,4.6471,4.6496,4.6506,4.6524,4.6551,4.6563,4.6559,4.6604,4.6591,4.6592,4.6594,4.6611,4.6615,4.6618,4.6572,4.6571,4.6571,0,0,4.6374,4.6387,4.6407,4.6421,4.6442,4.6451,4.6456,4.6477,4.6484,4.6509,4.6512,4.6529,4.656,4.6574,4.6585,4.6614,4.6615,4.662,4.6632,4.6649,4.6652,4.6655,4.6667,4.6671,4.6622,4.6622,4.6622,0,4.6378,4.6407,4.6417,4.6438,4.6451,4.6456,4.6477,4.649,4.6514,4.6523,4.6519,4.656,4.6572,4.6604,4.6611,4.6619,4.6626,4.6617,4.6651,4.6654,4.6657,4.6669,4.6673,4.6623,4.6623,4.6623,4.6623,0,4.6412,4.6433,4.6447,4.6473,4.6488,4.6509,4.6522,4.6536,4.654,4.6551,4.6578,4.6593,4.6615,4.6623,4.6627,4.6656,4.6653,4.665,4.6641,4.6662,4.6673,4.6677,4.6624,4.6623,4.6623,4.6623,0,0,4.643,4.6464,4.6469,4.6482,4.6507,4.6523,4.6545,4.6568,4.6581,4.6598,4.6617,4.6645,4.6644,4.6656,4.6662,4.6676,4.6701,4.6672,4.6672,4.6678,4.6736,4.6739,4.6743,4.6701,4.6702,4.6703,4.6735,0,4.6454,4.6495,4.6506,4.654,4.656,4.6566,4.6586,4.6603,4.6614,4.6632,4.6644,4.6664,4.6659,4.6667,4.6682,4.6695,4.6713,4.6692,4.672,4.6721,4.6716,4.6749,4.6751,4.678,4.6739,4.674,4.674,0,4.6487,4.6508,4.6545,4.6569,4.6578,4.6596,4.6619,4.6637,4.6657,4.6664,4.668,4.6685,4.6709,4.6699,4.6733,4.6719,4.6731,4.6739,4.674,4.6743,4.6732,4.6754,4.679,4.6794,4.6747,4.6746,4.6746,0,4.6499,4.6536,4.6563,4.6574,4.6603,4.6615,4.6628,4.6648,4.6662,4.6682,4.6692,4.6714,4.6727,4.6744,4.6755,4.6747,4.6789,4.6779,4.6796,4.6795,4.6804,4.6803,4.6843,4.6811,4.6811,4.681,4.681,0,4.6525,4.6547,4.6569,4.6586,4.6612,4.6625,4.665,4.6663,4.6681,4.6701,4.6707,4.6725,4.6739,4.6759,4.6768,4.6795,4.68,4.6807,4.6809,4.6807,4.6806,4.6815,4.6814,4.6812,4.6811,4.6811,4.6811,0,4.6541,4.6557,4.6588,4.6614,4.6621,4.6639,4.6661,4.6678,4.669,4.6715,4.6722,4.674,4.6765,4.6778,4.6808,4.6814,4.6846,4.6846,4.6839,4.684,4.6856,4.6855,4.6904,4.6911,4.6873,4.6873,4.6873,0,4.6557,4.6575,4.6604,4.6619,4.6632,4.6655,4.667,4.6684,4.67,4.6726,4.674,4.6766,4.6787,4.6826,4.6842,4.6865,4.6867,4.6883,4.687,4.6869,4.6869,4.6868,4.6871,4.6885,4.6885,4.6885,4.6886,0,4.6584,4.6592,4.6614,4.664,4.6659,4.668,4.67,4.6711,4.6729,4.6746,4.6773,4.6789,4.6822,4.6847,4.6873,4.6885,4.6889,4.689,4.6895,4.6893,4.6889,4.6893,4.6846,4.6888,4.6888,4.6888,4.6888,4.6887,4.6601,4.6619,4.6643,4.6668,4.6686,4.6706,4.6724,4.6739,4.6762,4.679,4.6797,4.6825,4.6847,4.6882,4.6896,4.6918,4.6915,4.6922,4.6924,4.6926,4.6928,4.6885,4.6923,4.6923,4.6923,4.6923,4.6923,0,4.663,4.6646,4.667,4.67,4.672,4.6723,4.6747,4.6764,4.6789,4.681,4.6832,4.6863,4.6889,4.6908,4.6934,4.6948,4.6951,4.6955,4.6954,4.6957,4.6928,4.6922,4.6952,4.6952,4.6952,4.6952,4.6952,4.6952,4.6647,4.6677,4.6688,4.6728,4.6744,4.6773,4.6786,4.6805,4.6822,4.6858,4.688,4.6892,4.6913,4.6941,4.6965,4.697,4.698,4.6984,4.6989,4.6962,4.6959,4.6956,4.695,4.6986,4.6986,4.7017,4.7017,4.7017]}]]